Probability
0 0 0 0 0 0 0 0 1 3 3 2 4 6 8 12 13 13 14 18 20 20 18 21 25 27 29 30 31 32 32 31 28 25 25 24 23 21 17 9 5 5 6 7
0 0 0 1 1 0 1 2 4 6 6 5 5 6 9 12 13 13 14 17 19 19 19 22 26 28 28 29 29 30 31 30 28 26 26 24 23 21 16 9 5 5 5 5
0 0 1 2 3 2 3 5 7 9 10 11 10 10 11 12 13 14 15 17 18 19 21 24 26 27 27 28 28 27 29 31 31 31 29 25 23 21 15 9 6 5 4 2
0 1 3 4 5 5 5 7 9 12 16 17 18 18 18 17 17 18 18 17 18 20 23 25 27 28 29 29 28 27 29 32 34 35 32 27 22 19 14 10 8 6 3 2
0 1 2 3 4 6 7 8 11 16 20 22 22 23 23 24 25 24 21 20 20 22 26 29 30 31 31 30 29 28 30 32 35 35 33 28 22 18 14 11 8 6 3 1
0 0 1 2 5 5 5 7 11 16 19 20 20 21 22 25 29 29 26 24 24 26 28 31 31 30 30 29 28 27 28 30 32 33 31 27 23 20 16 12 10 8 5 2
0 0 0 3 6 6 4 6 11 15 15 15 17 18 19 24 30 32 31 28 27 27 27 27 27 27 26 27 27 25 26 27 28 29 28 26 23 21 17 13 11 11 9 7
0 0 0 2 6 6 6 8 14 16 15 14 16 19 22 25 29 32 33 32 30 28 25 24 25 24 24 25 25 25 25 26 26 26 26 24 21 20 18 14 13 13 12 11
1 1 1 3 5 7 8 11 15 18 18 17 17 19 22 23 25 27 29 30 29 27 25 23 22 21 20 21 22 23 26 27 26 25 24 22 20 20 18 15 13 13 13 13
5 5 5 6 8 9 11 13 15 16 16 16 17 18 18 18 19 20 23 24 23 22 21 19 18 17 16 15 16 20 24 26 25 24 22 21 21 21 20 17 14 13 13 13
9 9 8 8 10 12 14 15 15 13 13 13 14 14 14 14 14 15 17 18 16 14 13 14 14 14 12 12 13 16 20 22 23 22 20 20 20 20 18 16 14 13 13 13
9 9 8 7 8 11 14 13 12 11 9 8 7 8 9 11 11 12 14 15 12 10 11 13 14 13 11 11 12 14 17 20 23 23 21 20 19 18 14 12 10 10 10 11
7 8 7 6 6 8 9 9 8 7 5 4 4 5 7 9 10 10 12 12 11 10 12 14 14 12 11 12 13 14 16 19 23 23 21 20 19 17 14 10 7 5 5 6
6 6 5 5 6 6 6 5 4 4 3 3 4 6 6 8 10 10 10 10 11 11 13 13 13 11 10 11 12 14 16 18 20 21 20 18 17 16 15 12 8 4 2 1
5 5 4 5 5 5 4 3 2 3 3 4 5 6 7 8 9 9 8 8 9 11 12 12 11 9 8 9 11 13 15 16 17 16 15 15 14 14 13 10 7 4 2 1
5 5 5 5 4 3 2 2 2 3 3 3 4 6 8 9 8 7 7 7 7 8 9 9 9 8 7 7 8 11 13 15 15 13 11 12 12 11 9 8 6 4 3 2
4 5 4 3 2 1 0 1 3 3 3 3 4 6 8 8 7 6 6 6 6 7 7 7 7 7 6 6 7 9 11 12 12 11 10 11 11 9 7 7 6 5 4 3
4 3 2 1 1 0 0 1 2 3 3 3 4 6 7 6 5 4 5 6 6 6 6 6 6 5 6 6 7 9 10 10 10 9 9 9 7 6 6 6 6 4 3 3
2 2 1 0 0 0 0 1 2 3 4 4 5 6 5 4 3 3 4 4 4 5 6 6 5 4 5 6 8 9 10 9 8 7 7 6 5 4 5 6 5 4 3 3
1 1 0 0 0 0 0 1 3 4 4 5 5 5 4 3 3 3 3 3 3 4 4 5 5 4 4 6 8 9 9 7 6 5 5 4 3 3 4 4 5 4 3 3
0 0 0 0 0 0 0 1 2 3 4 4 4 4 3 3 3 3 3 3 3 3 3 4 4 3 3 4 6 7 6 5 4 3 3 3 2 2 2 3 3 3 2 2
0 0 0 0 0 0 0 1 1 1 3 3 3 3 3 3 3 3 3 3 3 3 3 3 3 3 2 3 5 5 4 3 2 1 1 1 1 1 1 1 1 1 1 1
0 0 0 0 0 0 0 0 0 1 3 3 3 3 3 3 3 3 3 3 3 3 2 2 2 2 2 3 4 5 5 3 2 0 0 0 0 0 0 0 0 0 0 0
0 0 0 0 0 0 0 0 1 2 3 3 3 3 3 3 3 3 3 3 3 2 2 1 0 1 2 3 3 4 4 3 2 1 0 0 0 0 0 0 0 0 0 0
1 0 0 0 0 0 0 1 2 3 3 3 3 3 3 3 3 3 4 3 2 2 2 1 1 1 2 2 1 2 2 3 3 2 1 0 0 0 0 0 0 0 0 0
2 1 0 0 0 0 0 1 2 2 2 2 3 3 3 3 3 3 3 2 1 1 2 2 1 1 1 1 0 0 1 3 3 3 2 1 0 0 0 0 0 0 0 0
2 1 0 0 0 0 0 1 1 1 1 1 2 3 3 3 3 3 3 1 0 0 1 1 1 0 0 0 0 0 1 2 3 3 3 2 1 0 0 0 0 0 0 0
Wind_Speed
4 5 2 3 3 2 2 6 7 8 8 9 8 7 6 7 6 7 7 7 8 8 8 8 8 8 8 8 8 8 8 8 7 6 5 5 5 4 4 4 4 4 4 3
3 1 1 2 3 3 2 3 3 4 5 5 5 4 4 5 8 8 8 8 8 8 8 9 9 9 8 8 8 8 8 8 6 6 6 5 5 4 4 3 3 3 3 3
2 3 3 4 4 3 2 2 5 5 6 3 5 5 5 6 7 7 8 8 8 8 8 8 9 9 9 9 8 8 7 7 6 7 6 6 6 5 5 4 3 3 3 3
0 3 3 7 3 1 3 1 1 3 3 6 7 5 3 5 6 6 6 7 7 6 6 5 6 6 7 7 7 7 7 7 7 7 7 6 6 5 4 3 3 3 3 3
2 1 4 5 3 1 3 1 2 3 4 4 6 6 4 1 4 5 6 6 6 5 5 5 6 7 8 7 7 7 7 7 7 7 7 7 6 6 5 4 4 3 3 3
2 2 4 5 5 2 5 2 3 2 4 5 6 4 2 1 2 4 4 4 4 4 4 5 5 6 7 7 7 7 7 7 7 7 8 8 8 6 4 4 4 4 3 3
3 3 5 5 5 3 4 5 3 1 4 4 4 4 4 2 3 4 4 4 5 5 5 4 5 7 7 6 7 7 6 6 6 6 7 7 6 5 5 4 4 3 3 3
3 3 6 6 3 2 5 2 1 3 4 5 5 5 5 5 5 5 5 5 5 5 3 3 4 6 6 6 6 5 5 5 5 5 6 5 6 5 5 5 4 3 3 2
5 5 5 2 1 1 3 3 2 3 4 7 7 6 5 4 4 4 4 4 4 4 4 3 3 4 5 3 3 5 5 5 5 5 4 5 6 6 5 5 4 4 3 3
1 2 2 2 3 3 4 4 3 4 6 7 7 6 5 5 4 4 3 3 3 4 4 2 2 2 2 2 3 5 5 5 4 5 4 4 4 5 5 5 5 4 4 4
1 2 4 5 4 3 4 5 5 4 5 7 8 6 6 5 3 3 2 3 3 3 3 1 1 1 1 2 3 3 4 4 4 4 4 4 3 3 5 5 6 6 5 5
3 4 1 1 1 3 4 4 4 6 6 5 6 5 5 4 3 2 2 3 3 2 2 1 2 1 1 1 2 3 3 3 4 4 3 3 3 2 0 2 4 6 6 6
3 1 1 1 3 3 4 4 5 6 6 5 5 5 5 3 3 2 3 2 2 2 2 1 2 1 1 1 2 2 3 3 3 3 4 4 4 4 2 1 1 2 4 6
2 2 3 2 2 2 4 4 5 5 5 4 4 4 4 4 3 3 2 2 2 2 2 1 1 0 0 1 1 1 1 2 2 3 3 3 3 3 3 3 2 1 2 3
2 3 3 2 2 3 3 5 6 4 4 4 4 4 4 4 2 1 1 2 3 3 2 1 1 1 1 1 1 1 1 1 1 1 2 2 3 3 3 3 3 2 1 1
2 3 4 3 3 3 4 4 4 3 3 3 3 3 3 4 3 2 2 2 3 2 1 1 1 1 1 1 1 1 1 1 1 1 1 1 2 2 2 2 2 2 2 2
3 2 2 2 2 2 2 2 2 3 3 3 3 3 3 3 3 2 1 1 1 1 1 1 0 1 1 1 1 1 1 1 1 1 1 1 1 2 2 3 3 3 3 3
2 3 2 2 3 3 3 2 2 3 3 3 3 3 3 3 2 1 1 1 2 2 1 0 1 0 0 0 1 1 1 1 1 2 1 1 2 2 2 3 3 3 2 3
2 3 3 3 4 4 3 2 2 2 2 2 3 2 2 2 2 2 1 1 1 1 2 1 1 0 0 1 1 1 1 2 1 1 1 2 1 1 2 2 2 2 2 2
3 4 4 3 3 3 3 2 1 1 1 2 2 2 1 1 2 2 2 1 2 3 3 2 1 1 1 2 2 1 1 1 1 1 1 1 1 1 2 2 2 2 3 3
3 3 3 2 2 2 2 2 2 2 1 2 3 2 1 1 1 2 2 1 3 2 2 2 1 1 2 2 2 1 2 1 1 1 1 2 2 2 2 2 2 2 2 2
3 3 3 3 3 2 1 1 2 2 1 1 2 1 1 0 0 0 1 2 3 2 1 1 1 2 2 2 1 2 2 2 2 1 1 2 2 2 2 2 2 2 2 2
2 2 2 2 2 1 1 1 1 1 1 1 1 1 1 1 1 1 1 3 2 2 1 2 2 3 2 2 2 2 2 2 2 2 2 2 2 2 2 2 2 2 2 2
1 1 1 1 2 2 1 1 0 1 1 1 1 1 1 1 0 1 2 2 2 2 2 2 3 3 2 2 2 2 2 2 2 2 2 2 2 2 2 2 2 2 2 2
2 2 2 2 2 1 0 1 2 2 2 1 0 1 0 1 1 1 1 1 1 1 1 1 2 3 1 1 1 1 1 2 2 2 2 2 2 2 2 2 2 2 2 2
1 1 1 1 1 1 1 1 1 1 1 1 1 1 1 1 0 0 0 1 1 1 1 1 1 1 1 1 1 1 1 1 2 2 2 2 2 2 2 2 3 3 2 2
1 1 1 1 1 1 1 1 1 0 0 1 1 1 1 1 1 1 1 1 1 1 1 1 1 1 0 0 1 1 1 2 2 2 2 2 2 3 3 3 3 3 2 2
Wind_Direction
230 228 213 233 253 258 177 185 184 209 195 207 200 190 183 170 157 149 157 166 175 174 175 174 171 175 176 176 175 174 169 172 179 176 167 165 166 162 152 146 149 144 135 135
327 280 288 278 264 237 207 191 180 167 216 213 180 147 133 155 157 154 162 172 176 173 172 174 177 177 174 174 174 166 169 177 174 165 160 160 158 150 141 139 137 132 139 145
301 314 10 298 257 200 202 187 163 186 219 160 137 154 165 159 154 161 166 170 174 179 180 180 179 174 173 175 168 163 167 168 166 162 158 164 161 148 151 153 141 141 155 154
148 31 229 245 268 158 123 76 137 161 154 135 145 152 143 149 156 161 169 170 172 174 175 174 166 160 164 156 158 162 163 164 165 164 163 165 156 156 158 155 158 161 171 174
116 175 270 295 313 293 117 10 33 115 121 115 129 89 38 78 134 159 165 163 163 160 161 160 162 160 152 153 162 164 168 171 171 168 165 166 168 170 169 165 167 172 173 173
131 165 229 261 295 294 97 6 333 73 124 128 113 111 247 286 111 123 126 129 132 129 124 136 154 151 149 161 166 176 181 179 175 171 172 176 179 176 172 169 174 164 162 175
167 209 254 277 305 33 114 229 276 153 144 128 130 164 179 122 82 98 109 114 114 118 122 141 148 151 159 169 184 190 177 169 169 175 180 178 173 169 164 165 160 161 170 182
153 189 250 297 15 125 200 214 125 102 125 111 103 99 97 96 91 89 84 77 88 98 103 122 141 147 162 185 194 171 160 166 171 178 181 172 164 166 165 163 164 172 176 186
184 212 245 282 135 195 146 115 96 92 94 108 100 88 81 81 76 74 88 88 86 98 98 90 121 147 160 186 166 154 156 171 176 175 180 172 170 172 169 169 177 187 187 197
68 294 309 353 39 39 72 98 95 99 102 100 103 100 87 73 62 53 62 81 78 84 83 83 92 105 137 145 151 157 169 178 178 178 182 177 178 179 179 182 187 191 194 203
51 307 348 5 18 39 66 80 82 86 93 101 106 101 91 82 65 54 65 70 77 94 101 98 83 68 83 123 132 151 172 177 179 182 181 182 186 190 191 195 194 193 199 194
216 252 182 262 341 53 82 75 81 87 82 97 115 112 97 95 82 65 82 83 89 95 100 92 89 76 50 86 129 143 162 180 185 183 181 178 173 168 42 194 203 203 201 196
180 251 166 124 69 66 76 81 83 88 98 98 96 99 94 84 78 83 84 88 109 123 120 102 93 72 36 56 106 146 171 182 184 181 180 180 178 174 179 326 34 205 207 206
117 107 72 63 85 77 82 85 84 85 89 99 102 101 100 91 79 89 92 95 104 100 96 96 95 77 252 116 109 118 157 175 172 181 177 175 179 180 176 177 188 255 276 232
81 117 137 116 87 90 93 100 96 90 88 86 94 102 108 108 104 90 76 79 83 76 61 56 53 321 308 107 109 109 113 126 146 138 153 166 169 169 176 186 196 205 206 302
75 75 82 88 93 98 102 107 120 127 119 107 101 104 116 120 118 109 86 83 93 87 48 52 18 329 32 90 94 108 113 85 101 115 114 137 166 169 180 183 189 193 199 194
83 83 91 101 108 99 102 112 132 137 130 127 133 128 116 109 100 83 61 61 109 122 134 140 290 327 59 118 138 163 151 127 111 121 150 182 193 185 185 188 197 203 206 196
147 151 149 137 111 90 72 80 117 123 134 138 124 109 110 120 139 149 143 74 55 33 10 268 227 239 350 313 174 181 175 177 185 193 194 203 214 205 194 191 201 206 212 200
108 114 106 99 102 99 96 80 82 91 107 119 116 126 141 152 164 159 137 106 85 304 293 301 288 158 247 252 215 184 169 171 191 210 195 187 194 201 202 196 202 208 203 196
95 92 89 88 95 107 120 118 92 73 74 110 115 111 108 155 169 163 148 171 223 230 246 255 228 221 239 238 222 190 184 187 193 205 193 188 197 217 223 222 218 212 209 205
99 97 91 83 80 92 111 118 119 117 104 112 118 131 179 228 195 165 153 216 275 269 259 260 235 238 242 242 218 190 187 184 184 203 198 193 196 213 226 229 232 232 222 216
82 85 86 89 88 76 67 107 128 129 121 119 127 122 110 227 243 162 211 220 243 254 252 251 243 238 242 216 183 180 187 188 188 187 187 192 201 217 228 233 235 241 234 225
102 101 98 100 103 99 48 66 120 148 157 155 164 169 173 211 192 163 273 274 249 241 235 245 263 267 238 189 185 190 192 192 193 193 203 206 207 212 219 228 230 231 234 235
122 130 137 115 90 84 66 6 30 97 119 117 141 194 172 159 298 249 221 240 244 246 239 260 273 271 250 212 207 205 201 200 203 203 210 211 211 215 220 224 231 237 234 240
106 102 93 90 85 78 69 56 59 53 60 59 17 310 204 175 193 239 243 236 260 259 270 279 276 279 263 225 220 211 196 187 191 203 212 213 223 231 236 236 232 231 233 235
114 120 130 138 152 151 107 76 70 51 64 52 348 332 331 332 354 24 22 29 25 8 334 303 297 277 247 234 216 207 196 192 200 215 223 220 224 228 232 232 236 232 231 239
77 77 76 54 34 76 87 87 88 58 119 152 247 301 340 27 37 30 35 39 32 13 328 313 311 298 286 242 198 209 224 223 221 223 224 228 230 231 234 238 240 237 229 232